Flag for Ukraine Weather past 2 weeks in Odesa, Ukraine

Now
68 °F

Sunny.


Feels Like: 68 °F
Forecast: 56 / 78 °F
Wind: 10 mph from Northeast

Location: Odesa Airport

Current Time: May 23, 2015 at 8:13:55 AM

Latest Report: May 23, 2015 at 8:00 AM


Visibility: 10 mi

Pressure: 29.95 "Hg

Humidity: 53%

Dew point: 50 °F

Location of OdesaLocation

Historic Weather in Odesa — Graph

°F

Odesa temperature yesterday

Maximum temperature yesterday: 81 °F (at 5:30 PM)
Minimum temperature yesterday: 55 °F (at 2:00 AM)
Average temperature yesterday: 68 °F

Past Weeks' High & Low Weather Summary

 TemperatureHumidityPressure
High81 °F (May 22, 5:30 PM)100% (May 16, 4:30 AM)30.18 "Hg (May 16, 4:30 AM)
Low45 °F (May 9, 5:30 AM)27% (May 12, 1:30 PM)29.65 "Hg (May 15, 1:00 AM)
Average63 °F63%30.00 "Hg
* Reported May 8 7:00 AM — May 23 7:30 AM, Odesa, Weather by CustomWeather, © 2015

Note: Actual official high and low records may vary slightly from our data, if they occured in-between our weather recording intervals... More about our weather records

Advertising

Odesa weather history for previous 24 hours

 ConditionsComfort  
Time TempWeatherWind HumidityBarometerVisibility
7:30 AM
Sat, May 23
66 °FPassing clouds.3 mph64%29.95 "HgN/A
7:00 AM63 °FSunny.6 mph73%29.95 "Hg10 mi
6:30 AM61 °FSunny.6 mph77%29.95 "Hg10 mi
6:00 AM61 °FClear.6 mph77%29.95 "Hg10 mi
5:30 AM61 °FClear.6 mph77%29.95 "Hg10 mi
5:00 AM61 °FClear.6 mph77%29.95 "Hg10 mi
4:30 AM61 °FClear.6 mph77%29.95 "Hg10 mi
4:00 AM61 °FClear.8 mph77%29.95 "Hg10 mi
3:30 AM61 °FClear.6 mph77%29.98 "Hg10 mi
3:00 AM57 °FClear.3 mph77%29.98 "Hg10 mi
2:30 AM57 °FClear.6 mph77%29.98 "Hg10 mi
2:00 AM59 °FClear.3 mph72%29.98 "Hg10 mi
1:30 AM57 °FClear.3 mph72%29.98 "Hg10 mi
1:00 AM59 °FClear.No wind68%30.01 "Hg10 mi
12:30 AM61 °FClear.No wind63%30.01 "Hg10 mi
12:00 AM61 °FClear.No wind63%30.01 "Hg10 mi
11:30 PM
Fri, May 22
63 °FClear.No wind64%30.01 "Hg10 mi
11:00 PM63 °FClear.No wind64%30.01 "Hg10 mi
10:30 PM64 °FClear.No wind60%30.01 "Hg10 mi
10:00 PM66 °FPassing clouds.3 mph60%30.01 "HgN/A
9:30 PM70 °FSunny.3 mph53%30.01 "Hg10 mi
9:00 PM72 °FPassing clouds.6 mph44%29.98 "HgN/A
8:30 PM73 °FSunny.6 mph41%29.98 "Hg10 mi
8:00 PM77 °FSunny.6 mph34%29.98 "Hg10 mi
7:30 PM79 °FSunny.6 mph34%29.98 "Hg10 mi
7:00 PM79 °FSunny.6 mph34%29.98 "Hg10 mi
6:30 PM79 °FSunny.6 mph34%29.98 "Hg10 mi
6:00 PM81 °FPassing clouds.6 mph30%29.98 "HgN/A
5:30 PM81 °FPassing clouds.8 mph28%29.98 "HgN/A
5:00 PM79 °FPassing clouds.6 mph32%30.01 "HgN/A
4:30 PM79 °FPassing clouds.3 mph32%30.01 "HgN/A
4:00 PM79 °FPassing clouds.6 mph32%30.01 "HgN/A
3:30 PM79 °FPassing clouds.8 mph32%30.01 "HgN/A
3:00 PM79 °FPassing clouds.6 mph34%30.01 "HgN/A
2:30 PM79 °FPassing clouds.6 mph32%30.04 "HgN/A
2:00 PM77 °FPassing clouds.8 mph34%30.04 "HgN/A
1:30 PM77 °FPassing clouds.8 mph34%30.04 "HgN/A
1:00 PM77 °FPassing clouds.10 mph34%30.04 "HgN/A
12:30 PM77 °FPassing clouds.13 mph39%30.04 "HgN/A
12:00 PM75 °FPassing clouds.10 mph39%30.04 "HgN/A
11:30 AM75 °FPassing clouds.10 mph41%30.04 "HgN/A
11:00 AM73 °FPassing clouds.8 mph47%30.04 "HgN/A
10:30 AM73 °FPassing clouds.10 mph47%30.04 "HgN/A
10:00 AM72 °FPassing clouds.8 mph50%30.04 "HgN/A
9:30 AM70 °FPassing clouds.8 mph53%30.04 "HgN/A
9:00 AM68 °FSunny.10 mph53%30.04 "Hg10 mi
8:30 AM66 °FSunny.10 mph56%30.04 "Hg10 mi
8:00 AM64 °FSunny.6 mph64%30.04 "Hg10 mi
Weather by CustomWeather, © 2015

See weather overviewHow to use our weather pages